2017-045C

Last updated on Tue Aug 15 2017 01:15:02 GMT+0100 (British Summer Time)

1 42906U 17045C 17226.70555325 -.00003588 11342-4 00000+0 0 9997 2 42906 51.6445 106.6960 0115811 47.6459 63.1220 15.97802207 03
UTC large
Height (km)
Speed (km/s)
/
Latitude / Longitude
Inclination (degrees)
Orbital Period (minutes)
Azimuth
Elevation
Range (km)
Doppler Factor

Next 0 passes for location: London (51.5072 / 0.1276)

Sorry there are no passes over London.